QPF
0.00 0.00 0.00 0.00 0.00 0.00 0.00 0.00 0.00 0.00 0.00 0.00 0.00 0.00 0.00 0.00 0.00 0.00 0.00 0.00 0.00 0.00 0.00 0.00 0.00 0.00 0.00 0.01 0.00 0.00 0.00 0.00 0.00 0.01 0.00 0.00 0.00 0.00 0.00 0.00 0.00 0.00 0.00 0.00 0.00 0.00 0.00 0.00 0.00
0.00 0.00 0.00 0.00 0.00 0.00 0.00 0.00 0.00 0.00 0.00 0.00 0.00 0.00 0.00 0.00 0.00 0.00 0.00 0.00 0.00 0.00 0.00 0.00 0.00 0.00 0.00 0.01 0.00 0.00 0.01 0.01 0.01 0.00 0.00 0.00 0.00 0.00 0.00 0.00 0.00 0.00 0.00 0.00 0.00 0.00 0.00 0.00 0.00
0.00 0.00 0.00 0.00 0.00 0.00 0.00 0.00 0.00 0.00 0.00 0.00 0.00 0.00 0.00 0.00 0.00 0.00 0.00 0.00 0.00 0.00 0.00 0.00 0.00 0.00 0.00 0.00 0.00 0.00 0.01 0.01 0.00 0.00 0.00 0.00 0.00 0.00 0.00 0.00 0.00 0.00 0.00 0.00 0.00 0.00 0.00 0.00 0.00
0.00 0.00 0.00 0.00 0.00 0.00 0.00 0.00 0.00 0.00 0.00 0.00 0.00 0.00 0.00 0.00 0.00 0.00 0.00 0.00 0.00 0.00 0.00 0.00 0.00 0.00 0.00 0.01 0.01 0.00 0.01 0.01 0.00 0.00 0.00 0.01 0.00 0.00 0.00 0.00 0.00 0.00 0.00 0.00 0.00 0.00 0.00 0.00 0.00
0.00 0.00 0.00 0.00 0.00 0.00 0.00 0.00 0.00 0.00 0.00 0.00 0.00 0.00 0.00 0.00 0.00 0.00 0.00 0.00 0.00 0.00 0.00 0.00 0.00 0.00 0.00 0.00 0.00 0.00 0.00 0.00 0.00 0.00 0.00 0.01 0.00 0.00 0.00 0.00 0.00 0.00 0.00 0.00 0.00 0.00 0.00 0.00 0.00
0.00 0.00 0.00 0.00 0.00 0.00 0.00 0.00 0.00 0.00 0.00 0.00 0.00 0.00 0.00 0.00 0.00 0.00 0.00 0.00 0.00 0.00 0.00 0.00 0.00 0.00 0.00 0.00 0.00 0.00 0.00 0.00 0.00 0.00 0.00 0.00 0.00 0.00 0.00 0.00 0.00 0.00 0.00 0.00 0.00 0.00 0.00 0.00 0.00
0.00 0.00 0.00 0.00 0.00 0.00 0.00 0.00 0.00 0.00 0.00 0.00 0.00 0.00 0.00 0.00 0.00 0.00 0.00 0.00 0.00 0.00 0.00 0.00 0.00 0.00 0.00 0.00 0.00 0.00 0.00 0.00 0.00 0.01 0.00 0.00 0.00 0.00 0.00 0.00 0.00 0.00 0.00 0.00 0.00 0.00 0.00 0.00 0.00
0.00 0.00 0.00 0.00 0.00 0.00 0.00 0.00 0.00 0.00 0.00 0.00 0.00 0.00 0.00 0.00 0.00 0.00 0.00 0.00 0.00 0.00 0.00 0.00 0.00 0.00 0.00 0.00 0.00 0.00 0.00 0.00 0.00 0.00 0.00 0.00 0.00 0.00 0.00 0.00 0.00 0.00 0.00 0.00 0.00 0.00 0.00 0.00 0.00
0.00 0.00 0.00 0.00 0.00 0.00 0.00 0.00 0.00 0.00 0.00 0.00 0.00 0.00 0.00 0.00 0.00 0.00 0.00 0.00 0.00 0.00 0.00 0.00 0.00 0.00 0.00 0.00 0.00 0.00 0.00 0.00 0.00 0.00 0.00 0.00 0.00 0.00 0.00 0.00 0.00 0.00 0.00 0.00 0.00 0.00 0.00 0.00 0.00
0.00 0.00 0.00 0.00 0.00 0.00 0.00 0.00 0.00 0.00 0.00 0.00 0.00 0.00 0.00 0.00 0.00 0.00 0.00 0.00 0.00 0.00 0.00 0.00 0.00 0.00 0.00 0.00 0.00 0.00 0.00 0.00 0.00 0.00 0.00 0.00 0.00 0.00 0.00 0.00 0.00 0.00 0.00 0.00 0.00 0.00 0.00 0.00 0.00
0.00 0.00 0.00 0.00 0.00 0.00 0.00 0.00 0.00 0.00 0.00 0.00 0.00 0.00 0.00 0.00 0.00 0.00 0.00 0.00 0.00 0.00 0.00 0.00 0.00 0.00 0.00 0.00 0.00 0.00 0.00 0.00 0.00 0.00 0.00 0.00 0.00 0.00 0.00 0.00 0.00 0.00 0.00 0.00 0.00 0.00 0.00 0.00 0.00
0.00 0.00 0.00 0.00 0.00 0.00 0.00 0.00 0.00 0.00 0.00 0.00 0.00 0.00 0.00 0.00 0.00 0.00 0.00 0.00 0.00 0.00 0.00 0.00 0.00 0.00 0.00 0.00 0.00 0.00 0.00 0.00 0.00 0.00 0.00 0.00 0.00 0.00 0.00 0.00 0.00 0.00 0.00 0.00 0.00 0.00 0.00 0.00 0.00
0.00 0.00 0.00 0.00 0.00 0.00 0.00 0.00 0.00 0.00 0.00 0.00 0.00 0.00 0.00 0.00 0.00 0.00 0.00 0.00 0.00 0.00 0.00 0.00 0.00 0.00 0.00 0.00 0.00 0.00 0.00 0.00 0.00 0.00 0.00 0.00 0.00 0.00 0.00 0.00 0.00 0.00 0.00 0.00 0.00 0.00 0.00 0.00 0.00
0.00 0.00 0.00 0.00 0.00 0.00 0.00 0.00 0.00 0.00 0.00 0.00 0.00 0.00 0.00 0.00 0.00 0.00 0.00 0.00 0.00 0.00 0.00 0.00 0.00 0.00 0.00 0.00 0.00 0.00 0.00 0.00 0.00 0.00 0.00 0.00 0.00 0.00 0.00 0.00 0.00 0.00 0.00 0.00 0.00 0.00 0.00 0.00 0.00
0.00 0.00 0.00 0.00 0.00 0.00 0.00 0.00 0.00 0.00 0.00 0.00 0.00 0.00 0.00 0.00 0.00 0.00 0.00 0.00 0.00 0.00 0.00 0.00 0.00 0.00 0.00 0.00 0.00 0.00 0.00 0.00 0.00 0.00 0.00 0.00 0.00 0.00 0.00 0.00 0.00 0.00 0.00 0.00 0.00 0.00 0.00 0.00 0.00
0.00 0.00 0.00 0.00 0.00 0.00 0.00 0.00 0.00 0.00 0.00 0.00 0.00 0.00 0.00 0.00 0.00 0.00 0.00 0.00 0.00 0.00 0.00 0.00 0.00 0.00 0.00 0.00 0.00 0.00 0.00 0.00 0.00 0.00 0.00 0.00 0.00 0.00 0.00 0.00 0.00 0.00 0.00 0.00 0.00 0.00 0.00 0.00 0.00
0.00 0.00 0.00 0.00 0.00 0.00 0.00 0.00 0.00 0.00 0.00 0.00 0.00 0.00 0.00 0.00 0.00 0.00 0.00 0.00 0.00 0.00 0.00 0.00 0.00 0.00 0.00 0.00 0.00 0.00 0.00 0.00 0.00 0.00 0.00 0.00 0.00 0.00 0.00 0.00 0.00 0.00 0.00 0.00 0.00 0.00 0.00 0.00 0.00
0.00 0.00 0.00 0.00 0.00 0.00 0.00 0.00 0.00 0.00 0.00 0.00 0.00 0.00 0.00 0.00 0.00 0.00 0.00 0.00 0.00 0.00 0.00 0.00 0.00 0.00 0.00 0.00 0.00 0.00 0.00 0.00 0.00 0.00 0.00 0.00 0.00 0.00 0.00 0.00 0.00 0.00 0.00 0.00 0.00 0.00 0.00 0.00 0.00
0.00 0.00 0.00 0.00 0.00 0.00 0.00 0.00 0.00 0.00 0.00 0.00 0.00 0.00 0.00 0.00 0.00 0.00 0.00 0.00 0.00 0.00 0.00 0.00 0.00 0.00 0.00 0.00 0.00 0.00 0.00 0.00 0.00 0.00 0.00 0.00 0.00 0.00 0.00 0.00 0.00 0.00 0.00 0.00 0.00 0.00 0.00 0.00 0.00
0.00 0.00 0.00 0.00 0.00 0.00 0.00 0.00 0.00 0.00 0.00 0.00 0.00 0.00 0.00 0.00 0.00 0.00 0.00 0.00 0.00 0.00 0.00 0.00 0.00 0.00 0.00 0.00 0.00 0.00 0.00 0.00 0.00 0.00 0.00 0.00 0.00 0.00 0.00 0.00 0.00 0.00 0.00 0.00 0.00 0.00 0.00 0.00 0.00
0.00 0.00 0.00 0.00 0.00 0.00 0.00 0.00 0.00 0.00 0.00 0.00 0.00 0.00 0.00 0.00 0.00 0.00 0.00 0.00 0.00 0.00 0.00 0.00 0.00 0.00 0.00 0.00 0.00 0.00 0.00 0.00 0.00 0.00 0.00 0.00 0.00 0.00 0.00 0.00 0.00 0.00 0.00 0.00 0.00 0.00 0.00 0.00 0.00
0.00 0.00 0.00 0.00 0.00 0.00 0.00 0.00 0.00 0.00 0.00 0.00 0.00 0.00 0.00 0.00 0.00 0.00 0.00 0.00 0.00 0.00 0.00 0.00 0.00 0.00 0.00 0.00 0.00 0.00 0.00 0.00 0.00 0.00 0.00 0.00 0.00 0.00 0.00 0.00 0.00 0.00 0.00 0.00 0.00 0.00 0.00 0.00 0.00
0.00 0.00 0.00 0.00 0.00 0.00 0.00 0.00 0.00 0.00 0.00 0.00 0.00 0.00 0.00 0.00 0.00 0.00 0.00 0.00 0.00 0.00 0.00 0.00 0.00 0.00 0.00 0.00 0.00 0.00 0.00 0.00 0.00 0.00 0.00 0.00 0.00 0.00 0.00 0.00 0.00 0.00 0.00 0.00 0.00 0.00 0.00 0.00 0.00
0.00 0.00 0.00 0.00 0.00 0.00 0.00 0.00 0.00 0.00 0.00 0.00 0.00 0.00 0.00 0.00 0.00 0.00 0.00 0.00 0.00 0.00 0.00 0.00 0.00 0.00 0.00 0.00 0.00 0.00 0.00 0.00 0.00 0.00 0.00 0.00 0.00 0.00 0.00 0.00 0.00 0.00 0.00 0.00 0.00 0.00 0.00 0.00 0.00
0.00 0.00 0.00 0.00 0.00 0.00 0.00 0.00 0.00 0.00 0.00 0.00 0.00 0.00 0.00 0.00 0.00 0.00 0.00 0.00 0.00 0.00 0.00 0.00 0.00 0.00 0.00 0.00 0.00 0.00 0.00 0.00 0.00 0.00 0.00 0.00 0.00 0.00 0.00 0.00 0.00 0.00 0.00 0.00 0.00 0.00 0.00 0.00 0.00
0.00 0.00 0.00 0.01 0.00 0.00 0.00 0.00 0.00 0.00 0.00 0.00 0.00 0.00 0.00 0.00 0.00 0.00 0.00 0.00 0.00 0.00 0.00 0.00 0.00 0.00 0.00 0.00 0.00 0.00 0.00 0.00 0.00 0.00 0.00 0.00 0.00 0.00 0.00 0.00 0.00 0.00 0.00 0.00 0.00 0.00 0.00 0.00 0.00
0.00 0.00 0.00 0.00 0.00 0.00 0.00 0.00 0.00 0.00 0.00 0.00 0.00 0.00 0.00 0.00 0.00 0.00 0.00 0.00 0.00 0.00 0.00 0.00 0.00 0.00 0.00 0.00 0.00 0.00 0.00 0.00 0.00 0.00 0.00 0.00 0.00 0.00 0.00 0.00 0.00 0.00 0.00 0.00 0.00 0.00 0.00 0.00 0.00
0.00 0.00 0.00 0.00 0.01 0.02 0.00 0.00 0.00 0.00 0.00 0.00 0.00 0.00 0.00 0.00 0.00 0.00 0.00 0.00 0.00 0.00 0.00 0.00 0.00 0.00 0.00 0.00 0.00 0.00 0.00 0.00 0.00 0.00 0.00 0.00 0.00 0.00 0.00 0.00 0.00 0.00 0.00 0.00 0.00 0.00 0.00 0.00 0.00
0.00 0.00 0.00 0.00 0.02 0.07 0.05 0.01 0.00 0.00 0.00 0.00 0.00 0.00 0.00 0.00 0.00 0.00 0.00 0.00 0.00 0.00 0.00 0.00 0.00 0.00 0.00 0.00 0.00 0.00 0.00 0.00 0.00 0.00 0.00 0.00 0.00 0.00 0.00 0.00 0.00 0.00 0.00 0.00 0.00 0.00 0.00 0.00 0.00
0.00 0.00 0.00 0.03 0.04 0.03 0.03 0.04 0.00 0.00 0.00 0.00 0.00 0.00 0.00 0.00 0.00 0.00 0.00 0.00 0.00 0.00 0.00 0.00 0.00 0.00 0.00 0.00 0.00 0.00 0.00 0.00 0.00 0.00 0.00 0.00 0.00 0.00 0.00 0.00 0.00 0.00 0.00 0.00 0.00 0.00 0.00 0.00 0.00
MSLP
1017.01 1017.10 1017.21 1017.51 1019.04 1019.78 1019.46 1018.64 1017.97 1017.49 1017.24 1017.00 1017.00 1017.21 1017.12 1016.97 1016.82 1016.84 1016.31 1016.37 1016.43 1016.47 1016.95 1017.12 1017.31 1017.65 1017.98 1018.29 1018.65 1018.94 1019.13 1019.20 1019.28 1019.49 1019.68 1019.85 1020.09 1020.33 1020.62 1020.72 1020.84 1020.71 1020.92 1021.17 1021.52 1021.64 1021.65 1021.67 1021.68
1017.13 1017.06 1017.54 1018.59 1019.58 1020.10 1019.37 1018.39 1017.84 1017.21 1016.97 1016.94 1016.93 1016.96 1016.97 1016.51 1016.18 1015.94 1016.13 1016.11 1016.36 1016.28 1016.69 1016.99 1017.23 1017.54 1017.90 1018.25 1018.57 1018.83 1019.06 1019.20 1019.40 1019.61 1019.83 1019.94 1020.19 1020.28 1020.51 1020.85 1021.03 1020.90 1021.12 1021.51 1021.81 1021.82 1021.84 1021.77 1021.80
1017.11 1017.47 1018.46 1019.41 1020.35 1020.21 1019.17 1017.97 1017.43 1017.06 1016.97 1017.01 1017.00 1016.84 1016.54 1016.02 1015.92 1015.81 1015.78 1015.98 1016.49 1016.51 1016.63 1016.94 1017.21 1017.42 1017.73 1018.14 1018.45 1018.70 1018.91 1019.14 1019.41 1019.68 1019.85 1020.16 1020.29 1020.60 1020.99 1021.26 1021.28 1021.19 1021.52 1021.72 1021.86 1022.00 1022.06 1022.01 1022.11
1017.59 1018.33 1019.86 1020.03 1020.39 1019.71 1018.78 1017.73 1017.46 1017.03 1016.87 1016.96 1016.88 1016.85 1016.41 1015.41 1015.64 1015.70 1015.91 1016.22 1016.51 1016.70 1016.94 1017.06 1017.16 1017.31 1017.62 1018.01 1018.30 1018.58 1018.82 1019.00 1019.32 1019.58 1019.97 1020.44 1020.76 1021.02 1021.48 1021.54 1021.55 1021.62 1021.76 1021.95 1021.97 1022.05 1022.11 1022.29 1022.39
1018.42 1019.33 1020.12 1020.55 1020.22 1019.22 1018.32 1017.52 1017.33 1017.16 1017.00 1016.90 1016.88 1016.63 1016.33 1015.44 1015.84 1015.92 1016.06 1016.34 1016.58 1016.72 1016.87 1017.12 1017.26 1017.29 1017.55 1017.91 1018.19 1018.45 1018.78 1019.01 1019.14 1019.78 1020.29 1020.57 1020.89 1021.27 1021.62 1021.77 1021.74 1021.86 1021.99 1022.04 1022.17 1022.30 1022.49 1022.66 1022.64
1019.19 1020.03 1020.71 1020.71 1019.96 1018.92 1017.93 1017.24 1017.16 1017.11 1016.96 1016.94 1016.96 1016.67 1016.00 1015.32 1015.70 1015.82 1016.15 1016.25 1016.33 1016.68 1017.07 1017.18 1017.27 1017.36 1017.50 1017.92 1018.14 1018.43 1018.67 1018.92 1019.27 1019.84 1020.32 1020.60 1021.00 1021.28 1021.58 1021.68 1021.87 1021.92 1022.05 1022.14 1022.32 1022.57 1022.56 1022.65 1022.75
1019.22 1020.35 1020.77 1020.54 1019.79 1018.81 1017.41 1016.96 1016.89 1016.68 1016.66 1016.46 1016.46 1016.62 1015.72 1015.47 1015.45 1015.89 1016.24 1016.42 1016.54 1016.76 1016.97 1017.16 1017.30 1017.45 1017.59 1017.83 1018.17 1018.38 1018.65 1018.93 1019.23 1019.84 1020.26 1020.66 1021.11 1021.30 1021.63 1021.76 1021.92 1021.99 1022.19 1022.39 1022.61 1022.76 1022.90 1022.99 1023.23
1019.30 1020.21 1020.68 1020.31 1019.62 1018.21 1017.00 1016.82 1016.40 1016.53 1016.19 1016.36 1016.37 1016.22 1015.67 1015.41 1015.89 1016.26 1016.48 1016.67 1016.80 1016.81 1016.90 1017.05 1017.20 1017.30 1017.50 1017.75 1018.13 1018.37 1018.56 1018.81 1019.14 1019.84 1020.28 1020.76 1021.17 1021.45 1021.80 1021.96 1022.04 1022.21 1022.39 1022.65 1022.88 1022.88 1023.10 1023.39 1023.51
1019.34 1020.24 1020.47 1019.65 1019.37 1017.70 1016.83 1016.67 1016.30 1016.03 1016.03 1016.14 1015.90 1015.53 1015.04 1015.73 1016.36 1016.55 1016.76 1016.83 1016.84 1016.87 1016.82 1016.82 1017.04 1017.22 1017.40 1017.61 1017.95 1018.32 1018.53 1018.71 1019.11 1019.74 1020.24 1020.78 1021.26 1021.61 1021.88 1022.09 1022.05 1022.22 1022.53 1022.83 1023.04 1023.15 1023.43 1023.54 1023.65
1019.35 1020.17 1019.44 1018.34 1017.93 1017.24 1016.71 1016.49 1016.06 1016.16 1015.88 1015.59 1015.45 1014.97 1015.15 1015.90 1016.23 1016.27 1016.28 1016.08 1016.33 1016.20 1016.20 1016.59 1016.75 1016.90 1017.29 1017.59 1017.89 1018.11 1018.39 1018.71 1019.25 1019.71 1020.20 1020.81 1021.33 1021.66 1021.98 1022.18 1022.05 1022.27 1022.63 1022.92 1023.12 1023.31 1023.54 1023.84 1023.99
1019.07 1019.05 1018.28 1017.62 1017.19 1016.86 1016.68 1016.26 1015.83 1015.87 1015.35 1014.39 1014.55 1014.38 1014.74 1015.42 1015.82 1015.86 1015.59 1015.28 1014.74 1014.98 1015.76 1015.98 1016.50 1016.78 1017.05 1017.38 1017.78 1018.12 1018.40 1018.85 1019.30 1019.79 1020.35 1020.93 1021.38 1021.75 1021.98 1022.21 1022.44 1022.71 1022.98 1023.15 1023.48 1023.79 1023.96 1024.09 1024.13
1018.91 1018.06 1017.85 1017.31 1016.93 1016.92 1016.58 1016.11 1015.91 1015.72 1013.38 1013.14 1013.25 1013.63 1013.94 1014.60 1014.89 1014.94 1014.90 1014.62 1014.77 1014.91 1014.92 1015.43 1015.96 1016.48 1016.76 1017.02 1017.30 1017.66 1018.07 1018.64 1019.10 1019.61 1020.15 1020.72 1021.28 1021.65 1021.94 1022.20 1022.54 1022.93 1023.32 1023.58 1023.79 1023.96 1024.19 1024.37 1024.41
1018.59 1018.01 1017.53 1017.06 1017.03 1016.70 1016.53 1015.62 1015.86 1014.38 1012.95 1012.84 1013.08 1013.35 1013.32 1013.73 1013.59 1013.69 1013.76 1013.91 1014.16 1014.23 1014.43 1014.75 1015.19 1015.46 1016.03 1016.75 1017.03 1017.36 1017.61 1018.02 1018.48 1019.28 1019.92 1020.35 1020.92 1021.37 1021.79 1022.20 1022.61 1022.97 1023.33 1023.54 1023.90 1024.12 1024.26 1024.36 1024.49
1017.96 1017.76 1017.33 1017.01 1016.76 1016.53 1016.55 1015.14 1015.40 1012.97 1012.68 1012.56 1012.86 1012.31 1012.63 1012.80 1012.43 1012.83 1012.95 1012.64 1013.13 1013.08 1013.09 1013.74 1014.06 1014.53 1015.08 1015.55 1016.02 1016.51 1017.13 1017.57 1018.22 1018.76 1019.26 1019.89 1020.42 1021.02 1021.54 1022.04 1022.39 1022.83 1023.10 1023.55 1023.87 1024.05 1024.26 1024.54 1024.60
1017.64 1017.82 1017.05 1016.59 1016.03 1016.16 1016.10 1015.91 1014.21 1012.25 1012.87 1012.52 1011.95 1011.91 1011.68 1011.71 1011.86 1011.38 1010.73 1011.26 1011.34 1011.45 1011.99 1012.40 1013.02 1013.81 1014.22 1014.50 1015.04 1015.52 1016.03 1016.90 1017.50 1018.05 1018.73 1019.35 1019.95 1020.42 1021.00 1021.62 1022.14 1022.54 1022.99 1023.42 1023.99 1024.42 1024.54 1024.60 1024.56
1017.80 1018.07 1017.63 1016.06 1016.07 1015.69 1015.83 1014.77 1012.77 1012.43 1012.54 1012.33 1011.61 1011.06 1010.99 1010.34 1010.30 1010.17 1010.45 1010.52 1010.83 1011.12 1011.25 1011.65 1011.98 1012.42 1013.10 1013.64 1014.04 1014.55 1015.21 1015.86 1016.39 1017.20 1018.03 1018.72 1019.37 1019.96 1020.66 1021.19 1021.70 1022.34 1022.91 1023.28 1023.64 1023.97 1024.23 1024.47 1024.38
1018.41 1018.10 1017.66 1016.81 1015.24 1015.74 1015.71 1014.40 1012.96 1012.38 1012.63 1011.92 1011.31 1010.58 1009.97 1009.29 1008.60 1008.91 1009.36 1009.43 1009.61 1009.93 1010.20 1010.50 1011.01 1011.15 1011.59 1012.51 1013.21 1013.95 1014.59 1015.08 1015.67 1016.47 1017.09 1017.90 1018.69 1019.40 1020.02 1020.69 1021.33 1022.01 1022.44 1022.88 1023.21 1023.70 1023.92 1024.26 1024.51
1017.92 1018.15 1017.73 1017.18 1015.52 1015.47 1015.38 1014.14 1013.35 1012.84 1012.27 1010.98 1010.06 1009.48 1008.84 1009.08 1008.33 1008.08 1008.67 1008.58 1008.46 1008.61 1008.88 1009.22 1009.76 1010.24 1010.94 1011.78 1012.61 1013.42 1014.09 1014.41 1014.91 1015.42 1016.00 1016.71 1017.54 1018.50 1019.35 1020.15 1020.88 1021.53 1022.11 1022.60 1023.08 1023.46 1024.03 1024.01 1024.32
1017.91 1017.69 1017.60 1016.63 1015.82 1015.76 1014.34 1013.43 1012.99 1012.08 1011.43 1010.02 1008.84 1008.13 1008.52 1008.19 1007.58 1008.33 1008.17 1007.85 1007.72 1007.90 1008.19 1008.38 1008.91 1009.28 1010.02 1010.70 1011.56 1012.44 1012.28 1013.29 1013.99 1014.32 1014.90 1015.64 1016.43 1017.39 1018.31 1019.24 1020.15 1020.93 1021.32 1021.75 1022.57 1023.32 1023.57 1024.09 1024.38
1017.74 1017.72 1017.26 1016.38 1015.47 1015.85 1014.55 1012.96 1012.03 1010.79 1009.51 1009.18 1008.16 1007.72 1008.31 1008.01 1007.96 1007.98 1007.99 1007.91 1007.72 1007.40 1007.54 1007.78 1007.72 1008.27 1008.76 1009.24 1009.73 1010.48 1011.35 1012.55 1013.23 1013.87 1014.45 1014.92 1015.65 1016.45 1017.28 1018.20 1019.19 1020.11 1020.89 1021.56 1022.04 1022.45 1023.21 1023.72 1023.96
1017.43 1017.59 1016.67 1016.65 1016.13 1015.49 1014.59 1012.44 1011.25 1009.58 1008.79 1008.17 1007.85 1008.37 1008.25 1008.49 1008.26 1008.02 1007.80 1007.94 1007.42 1007.23 1007.31 1007.48 1007.87 1007.83 1008.19 1008.63 1009.59 1010.67 1011.38 1012.34 1012.93 1013.32 1013.78 1014.26 1014.76 1015.41 1016.10 1017.08 1018.09 1019.27 1020.03 1020.64 1021.23 1021.69 1022.01 1022.72 1023.52
1017.25 1016.20 1016.58 1016.85 1017.14 1016.74 1015.45 1012.54 1011.07 1009.08 1008.40 1008.05 1008.05 1008.48 1008.50 1008.85 1008.55 1008.70 1008.40 1007.56 1007.47 1007.08 1006.86 1007.19 1007.65 1008.22 1008.61 1009.09 1009.59 1009.60 1009.60 1009.99 1010.15 1011.24 1012.83 1013.84 1014.44 1014.80 1015.23 1016.04 1016.91 1017.79 1019.01 1019.91 1020.40 1020.95 1021.35 1021.64 1022.35
1016.02 1015.91 1016.45 1016.81 1017.36 1016.93 1016.19 1015.19 1010.56 1009.30 1008.39 1008.09 1007.67 1007.94 1008.28 1008.62 1009.16 1008.57 1008.10 1008.31 1008.77 1008.69 1008.16 1007.76 1007.71 1008.65 1009.39 1009.73 1009.45 1009.79 1009.71 1009.73 1010.05 1010.40 1011.46 1012.78 1014.21 1015.12 1015.59 1015.75 1016.50 1017.28 1018.01 1018.90 1019.63 1020.40 1020.87 1021.08 1021.34
1015.60 1016.10 1016.88 1017.58 1017.76 1017.03 1014.65 1014.20 1010.98 1009.60 1008.19 1008.26 1007.67 1007.95 1008.37 1009.17 1008.83 1008.96 1009.03 1009.66 1010.04 1009.35 1009.26 1008.50 1008.67 1008.52 1009.41 1010.48 1010.83 1010.91 1010.85 1010.70 1010.81 1010.87 1011.20 1012.14 1012.92 1013.84 1015.03 1015.91 1016.30 1016.63 1017.20 1017.71 1018.54 1019.55 1020.19 1020.60 1020.96
1016.34 1016.79 1017.39 1017.69 1017.83 1015.88 1014.59 1013.75 1009.94 1008.65 1008.21 1008.35 1009.02 1009.27 1009.58 1010.15 1009.88 1010.18 1010.64 1010.77 1010.76 1010.42 1009.86 1009.48 1009.46 1009.90 1010.31 1010.22 1011.13 1011.66 1011.65 1011.48 1011.02 1010.98 1011.25 1011.31 1012.03 1012.89 1013.57 1014.18 1014.97 1015.84 1016.63 1017.35 1017.78 1018.29 1019.03 1019.51 1019.88
1015.90 1016.16 1017.05 1016.76 1016.74 1015.02 1014.50 1011.99 1008.97 1008.58 1008.76 1009.45 1009.64 1010.10 1010.87 1011.87 1012.23 1012.80 1012.73 1012.33 1011.91 1011.57 1010.94 1009.76 1010.14 1010.85 1010.91 1011.18 1010.87 1011.43 1011.91 1012.28 1012.44 1012.43 1011.63 1011.37 1011.63 1011.56 1012.25 1013.16 1014.09 1014.90 1015.57 1016.58 1017.49 1018.33 1018.74 1019.02 1019.23
1015.37 1015.52 1014.90 1015.52 1015.75 1015.21 1013.05 1010.75 1008.77 1008.77 1010.41 1010.66 1011.16 1012.06 1013.75 1014.25 1014.71 1014.52 1014.21 1013.67 1013.18 1012.36 1011.60 1012.09 1011.76 1011.57 1011.35 1011.32 1011.59 1011.53 1011.65 1011.78 1011.75 1011.88 1011.99 1012.08 1011.88 1012.05 1012.47 1012.54 1013.03 1013.54 1014.22 1015.22 1015.93 1016.72 1017.55 1018.48 1019.01
1014.27 1014.32 1015.02 1015.40 1015.39 1014.58 1012.84 1011.94 1009.57 1010.29 1012.03 1012.68 1013.98 1014.94 1014.99 1014.63 1014.57 1014.86 1014.56 1014.84 1014.39 1013.91 1013.09 1012.98 1012.85 1012.62 1012.30 1011.85 1011.51 1011.40 1011.50 1011.73 1011.71 1011.39 1011.01 1010.93 1011.29 1011.69 1012.22 1012.58 1012.87 1013.38 1013.60 1014.34 1015.13 1015.70 1016.36 1016.98 1017.68
1014.94 1014.50 1014.56 1014.58 1014.56 1013.84 1012.88 1011.54 1010.03 1011.73 1013.58 1014.94 1015.63 1016.35 1016.31 1015.99 1015.66 1015.30 1015.16 1014.65 1014.64 1014.22 1013.63 1013.88 1013.49 1013.26 1012.90 1012.38 1011.95 1011.67 1011.37 1011.39 1011.37 1010.94 1010.76 1010.92 1010.89 1010.99 1011.37 1011.75 1012.36 1012.98 1013.16 1013.53 1014.29 1014.66 1015.32 1015.82 1016.63
1013.78 1013.91 1013.72 1014.23 1014.45 1013.47 1012.52 1011.23 1011.14 1013.11 1014.45 1015.64 1016.24 1016.44 1017.04 1017.17 1016.89 1016.37 1016.04 1015.59 1014.93 1014.59 1014.36 1014.09 1014.12 1013.85 1013.40 1012.92 1012.62 1011.99 1011.62 1011.22 1011.05 1010.79 1010.52 1010.58 1010.38 1010.48 1010.59 1011.12 1011.35 1011.87 1012.44 1012.63 1012.86 1013.73 1014.41 1014.62 1015.13
Thickness
5736 5736 5734 5726 5698 5685 5679 5693 5700 5705 5709 5714 5712 5710 5710 5712 5709 5703 5728 5729 5729 5729 5725 5723 5722 5719 5716 5714 5712 5710 5708 5707 5707 5706 5704 5703 5702 5701 5700 5700 5700 5703 5701 5700 5699 5698 5700 5701 5702
5736 5736 5729 5708 5686 5675 5684 5695 5701 5709 5716 5715 5715 5714 5712 5714 5722 5727 5728 5730 5728 5729 5725 5723 5721 5719 5717 5714 5712 5711 5709 5708 5706 5705 5704 5703 5701 5701 5700 5698 5697 5699 5698 5696 5695 5696 5698 5699 5700
5736 5732 5716 5694 5672 5677 5687 5704 5710 5716 5716 5716 5715 5718 5720 5722 5727 5729 5732 5730 5726 5725 5725 5722 5719 5718 5716 5714 5712 5711 5710 5708 5706 5704 5703 5700 5700 5698 5696 5694 5695 5697 5695 5693 5694 5694 5694 5696 5696
5730 5722 5704 5691 5682 5690 5698 5713 5712 5716 5718 5715 5717 5714 5722 5735 5733 5733 5731 5728 5725 5723 5721 5719 5718 5717 5714 5712 5710 5709 5708 5707 5705 5703 5701 5698 5696 5694 5691 5691 5691 5692 5691 5691 5693 5693 5693 5692 5692
5722 5708 5690 5682 5683 5696 5703 5710 5714 5715 5715 5715 5716 5717 5717 5735 5732 5732 5730 5726 5724 5721 5719 5717 5715 5715 5713 5710 5709 5707 5705 5704 5703 5699 5696 5695 5693 5691 5688 5688 5689 5689 5689 5689 5689 5688 5688 5687 5688
5707 5699 5683 5679 5686 5699 5707 5715 5715 5712 5714 5714 5712 5712 5722 5735 5732 5731 5728 5727 5724 5721 5717 5715 5713 5712 5710 5708 5706 5705 5703 5702 5700 5696 5693 5691 5689 5688 5686 5686 5685 5686 5685 5685 5684 5682 5684 5684 5684
5703 5690 5681 5680 5684 5693 5713 5715 5714 5715 5714 5716 5719 5714 5727 5733 5734 5730 5726 5724 5721 5719 5717 5714 5712 5709 5707 5705 5703 5702 5700 5699 5696 5693 5690 5688 5684 5684 5682 5682 5681 5681 5680 5679 5678 5677 5677 5677 5676
5699 5692 5682 5677 5683 5696 5717 5712 5719 5714 5718 5716 5717 5714 5722 5735 5728 5725 5723 5720 5718 5716 5714 5713 5711 5710 5707 5704 5701 5698 5698 5696 5694 5689 5686 5683 5680 5679 5677 5676 5676 5675 5675 5674 5672 5673 5672 5670 5671
5701 5682 5672 5684 5678 5701 5713 5712 5714 5719 5715 5712 5715 5722 5732 5724 5720 5719 5717 5715 5715 5714 5713 5712 5709 5707 5706 5703 5700 5696 5694 5693 5690 5686 5683 5679 5676 5673 5672 5672 5671 5671 5670 5668 5667 5668 5666 5666 5667
5692 5673 5682 5695 5693 5701 5710 5709 5712 5710 5711 5707 5714 5721 5723 5717 5716 5717 5716 5718 5715 5716 5716 5711 5709 5707 5703 5701 5698 5696 5693 5691 5687 5683 5680 5676 5673 5670 5667 5666 5667 5666 5665 5663 5663 5662 5663 5662 5661
5689 5686 5692 5699 5698 5703 5703 5703 5708 5702 5704 5713 5713 5722 5721 5714 5712 5714 5717 5719 5723 5722 5714 5711 5706 5704 5702 5698 5695 5692 5690 5686 5682 5679 5675 5672 5668 5665 5663 5662 5660 5659 5657 5657 5655 5655 5654 5654 5654
5687 5693 5693 5702 5701 5699 5698 5701 5700 5696 5726 5725 5723 5724 5723 5715 5714 5714 5716 5717 5716 5713 5713 5709 5704 5700 5698 5696 5694 5691 5688 5683 5679 5676 5673 5668 5664 5661 5659 5657 5655 5652 5650 5649 5648 5647 5646 5645 5645
5679 5688 5694 5695 5693 5692 5690 5698 5689 5704 5721 5723 5720 5719 5719 5717 5719 5718 5720 5718 5714 5712 5710 5706 5703 5702 5697 5692 5689 5687 5685 5683 5679 5673 5669 5665 5660 5657 5655 5652 5649 5646 5644 5642 5639 5638 5637 5637 5637
5682 5684 5687 5691 5693 5687 5682 5699 5693 5721 5713 5718 5712 5721 5716 5716 5723 5719 5717 5722 5717 5716 5713 5707 5704 5700 5696 5694 5691 5686 5682 5679 5674 5671 5667 5662 5657 5653 5649 5646 5643 5640 5638 5635 5632 5631 5630 5628 5628
5677 5672 5680 5687 5691 5678 5673 5679 5690 5719 5706 5707 5717 5716 5716 5718 5718 5725 5733 5726 5725 5723 5717 5713 5705 5698 5696 5695 5691 5688 5684 5677 5672 5669 5664 5660 5655 5651 5647 5642 5637 5635 5632 5629 5625 5621 5620 5619 5620
5665 5658 5657 5692 5679 5682 5674 5669 5711 5707 5700 5703 5711 5720 5716 5726 5724 5726 5724 5721 5717 5715 5713 5710 5708 5704 5698 5693 5691 5687 5682 5677 5674 5668 5661 5657 5652 5648 5642 5638 5633 5629 5625 5621 5618 5616 5614 5613 5614
5644 5636 5638 5657 5687 5675 5659 5660 5692 5699 5691 5698 5709 5718 5723 5725 5733 5730 5719 5716 5715 5713 5713 5712 5708 5708 5704 5696 5689 5683 5680 5674 5671 5665 5661 5655 5649 5644 5639 5634 5628 5624 5620 5617 5614 5610 5609 5606 5604
5637 5626 5629 5638 5680 5663 5650 5652 5674 5683 5687 5702 5710 5715 5718 5714 5722 5725 5713 5713 5715 5715 5715 5716 5712 5710 5703 5695 5689 5681 5676 5672 5669 5665 5660 5655 5649 5642 5635 5629 5624 5620 5615 5610 5606 5604 5599 5599 5596
5638 5630 5624 5641 5656 5643 5665 5662 5668 5682 5685 5699 5711 5717 5711 5712 5720 5710 5711 5714 5714 5711 5708 5710 5709 5707 5702 5695 5687 5678 5682 5672 5668 5665 5661 5656 5649 5641 5634 5626 5620 5615 5611 5607 5601 5596 5594 5589 5586
5625 5619 5624 5634 5646 5629 5639 5653 5668 5682 5698 5696 5706 5709 5698 5703 5707 5705 5703 5704 5706 5710 5707 5706 5709 5706 5703 5698 5695 5688 5681 5671 5664 5659 5656 5651 5646 5638 5631 5623 5616 5609 5602 5597 5595 5592 5586 5583 5580
5616 5612 5627 5617 5622 5626 5623 5639 5651 5685 5686 5691 5693 5690 5692 5692 5695 5699 5700 5697 5701 5704 5702 5700 5696 5696 5695 5693 5685 5675 5669 5662 5656 5654 5650 5646 5642 5637 5630 5622 5614 5605 5598 5594 5590 5588 5586 5582 5574
5607 5621 5614 5610 5606 5602 5618 5622 5643 5669 5678 5682 5679 5675 5676 5678 5685 5685 5686 5695 5693 5696 5695 5691 5686 5681 5678 5675 5672 5675 5677 5675 5672 5661 5645 5636 5631 5630 5628 5622 5614 5607 5596 5589 5585 5581 5580 5578 5574
5610 5618 5613 5607 5593 5591 5593 5591 5633 5649 5656 5661 5674 5675 5674 5669 5660 5669 5678 5678 5675 5670 5671 5672 5673 5665 5658 5655 5660 5660 5665 5665 5660 5658 5647 5633 5620 5612 5609 5610 5605 5600 5595 5586 5580 5574 5571 5570 5569
5609 5605 5587 5566 5575 5574 5603 5600 5624 5630 5646 5650 5660 5662 5657 5650 5650 5652 5650 5645 5643 5652 5652 5658 5656 5655 5646 5635 5633 5632 5635 5637 5638 5639 5636 5626 5619 5610 5600 5593 5591 5590 5587 5585 5577 5568 5563 5560 5558
5586 5577 5560 5558 5542 5582 5587 5584 5627 5640 5646 5642 5637 5633 5631 5619 5624 5626 5625 5621 5621 5622 5628 5637 5637 5631 5627 5626 5614 5608 5610 5612 5619 5621 5621 5621 5613 5606 5599 5594 5587 5580 5574 5570 5569 5566 5560 5556 5554
5566 5570 5560 5533 5549 5589 5543 5590 5631 5632 5635 5619 5613 5613 5603 5593 5588 5582 5582 5584 5590 5593 5601 5615 5613 5608 5608 5604 5606 5600 5594 5588 5584 5585 5596 5600 5600 5602 5596 5588 5580 5574 5569 5562 5556 5551 5549 5547 5546
5558 5553 5570 5546 5522 5522 5579 5599 5638 5623 5602 5595 5591 5579 5558 5551 5547 5548 5554 5560 5564 5572 5578 5573 5575 5577 5583 5586 5586 5585 5583 5580 5580 5576 5574 5571 5574 5575 5574 5575 5573 5569 5565 5558 5555 5550 5543 5534 5531
5554 5557 5540 5525 5521 5524 5549 5558 5601 5601 5573 5564 5535 5526 5532 5537 5539 5536 5537 5533 5537 5541 5547 5547 5548 5552 5554 5560 5564 5566 5565 5563 5564 5566 5566 5566 5563 5561 5556 5554 5555 5553 5554 5550 5545 5543 5538 5533 5527
5528 5529 5532 5534 5521 5517 5529 5543 5590 5560 5521 5510 5509 5504 5503 5508 5512 5516 5518 5521 5522 5526 5529 5524 5527 5530 5533 5538 5542 5545 5548 5549 5549 5551 5553 5552 5551 5550 5546 5542 5540 5538 5539 5539 5535 5535 5531 5528 5520
5531 5528 5527 5516 5513 5500 5517 5521 5568 5515 5500 5496 5487 5487 5482 5479 5482 5487 5490 5492 5497 5502 5506 5505 5503 5506 5510 5513 5514 5520 5525 5528 5531 5533 5535 5536 5540 5540 5542 5537 5536 5533 5528 5528 5529 5524 5521 5521 5516